Flag for Tunisia Weather past 2 weeks in Tunis, Tunisia

Now
59 °F

Passing clouds.


Feels Like: 58 °F
Forecast: 50 / 62 °F
Wind: 7 mph from Southwest

Location: Tunis-Carthage

Current Time: Dec 21, 2014 at 10:00:15 AM

Latest Report: Dec 21, 2014 at 9:30 AM


Visibility: N/A

Pressure: 30.33 "Hg

Humidity: 77%

Dew point: 52 °F

Location of TunisLocation

Historic Weather in Tunis — Graph

°F

Tunis temperature yesterday

Maximum temperature yesterday: 66 °F (at 12:30 PM)
Minimum temperature yesterday: 54 °F (at 3:00 AM)
Average temperature yesterday: 60 °F

Past Weeks' High & Low Weather Summary

 TemperatureHumidityPressure
High68 °F (Dec 6, 1:30 PM)94% (Dec 8, 9:00 AM)30.33 "Hg (Dec 8, 9:00 AM)
Low45 °F (Dec 13, 7:30 AM)39% (Dec 7, 1:30 PM)29.77 "Hg (Dec 9, 12:30 PM)
Average57 °F72%30.08 "Hg
* Reported Dec 6 9:00 AM — Dec 21 9:00 AM, Tunis, Weather by CustomWeather, © 2014

Note: Actual official high and low records may vary slightly from our data, if they occured in-between our weather recording intervals... More about our weather records

Advertising

Tunis weather history for previous 24 hours

 ConditionsComfort  
Time TempWeatherWind HumidityBarometerVisibility
9:00 AM
Dec 21
57 °FPassing clouds.8 mph82%30.33 "HgN/A
8:30 AM55 °FPassing clouds.6 mph88%30.33 "HgN/A
8:00 AM55 °FPassing clouds.9 mph82%30.33 "HgN/A
7:30 AM57 °FPassing clouds.7 mph77%30.33 "HgN/A
7:00 AM57 °FPassing clouds.7 mph82%30.33 "HgN/A
6:30 AM57 °FPassing clouds.8 mph77%30.30 "HgN/A
6:00 AM57 °FPassing clouds.8 mph77%30.30 "HgN/A
5:00 AM57 °FPassing clouds.7 mph82%30.30 "HgN/A
4:30 AM57 °FPassing clouds.8 mph77%30.30 "HgN/A
4:00 AM57 °FPassing clouds.9 mph77%30.33 "HgN/A
2:30 AM59 °FPassing clouds.10 mph72%30.33 "HgN/A
2:00 AM59 °FPassing clouds.10 mph72%30.33 "HgN/A
1:00 AM59 °FPassing clouds.13 mph72%30.33 "HgN/A
12:30 AM59 °FPassing clouds.14 mph72%30.33 "HgN/A
12:00 AM59 °FPassing clouds.12 mph72%30.33 "HgN/A
11:30 PM
Dec 20
59 °FPassing clouds.12 mph72%30.33 "HgN/A
11:00 PM59 °FPassing clouds.10 mph72%30.33 "HgN/A
10:30 PM59 °FPassing clouds.9 mph72%30.33 "HgN/A
9:30 PM59 °FPassing clouds.8 mph72%30.33 "HgN/A
9:00 PM59 °FPassing clouds.15 mph77%30.33 "HgN/A
8:30 PM59 °FPassing clouds.8 mph77%30.33 "HgN/A
8:00 PM59 °FPassing clouds.15 mph77%30.33 "HgN/A
7:30 PM59 °FPassing clouds.10 mph77%30.30 "HgN/A
7:00 PM61 °FPassing clouds.12 mph72%30.30 "HgN/A
6:00 PM61 °FPassing clouds.14 mph77%30.30 "HgN/A
5:30 PM63 °FPassing clouds.10 mph77%30.30 "HgN/A
5:00 PM63 °FScattered clouds.14 mph77%30.30 "HgN/A
4:30 PM64 °FScattered clouds.13 mph68%30.30 "HgN/A
4:00 PM64 °FScattered clouds.15 mph68%30.27 "HgN/A
3:30 PM66 °FScattered clouds.16 mph64%30.30 "HgN/A
3:00 PM66 °FScattered clouds.16 mph68%30.27 "HgN/A
2:30 PM66 °FScattered clouds.13 mph68%30.27 "HgN/A
2:00 PM64 °FScattered clouds.16 mph68%30.30 "HgN/A
1:30 PM66 °FScattered clouds.15 mph68%30.30 "HgN/A
1:00 PM66 °FScattered clouds.16 mph68%30.30 "HgN/A
12:30 PM66 °FScattered clouds.20 mph68%30.30 "HgN/A
12:00 PM64 °FScattered clouds.17 mph73%30.33 "HgN/A
11:30 AM64 °FScattered clouds.16 mph68%30.33 "HgN/A
11:00 AM64 °FScattered clouds.15 mph73%30.33 "HgN/A
10:30 AM64 °FScattered clouds.8 mph73%30.33 "HgN/A
10:00 AM63 °FScattered clouds.10 mph77%30.33 "HgN/A
Weather by CustomWeather, © 2014

See weather overviewHow to use our weather pages